Date String (YYYY-MM-DD hh:mm:ss) UTC,Instrument flags,Ambient pressure (hPa),Sample flow (lpm),Bypass flow (lpm),Sample temperature (°C),Ambient temperature (°C),ASC tube jacket temperature (°C),LED temperature (°C),Box temperature (°C),Sample RH (%),Span deviation,Mass concentration (μg/m³),Mass concentration (μg/m³),Mass concentration (μg/m³)
DateTimeUTC,F1_M11,P_M11,Q1_M11,Q2_M11,T1_M11,T2_M11,T3_M11,T4_M11,T5_M11,U1_M11,ZSPAN_M11,X0_M11,X2_M11,X1_M11
2022-11-01 22:00:00,,0820.4,5.00,0.00,29.8,27.8,00.0,38.5,31.5,09.3,0000.0,0009.55,0003.13,0002.06
2022-11-01 22:01:00,,0820.4,5.00,0.00,29.8,28.1,00.0,38.5,31.5,09.3,0000.0,0009.83,0003.15,0002.03
2022-11-01 22:02:00,,0820.4,5.00,0.00,29.8,28.2,00.0,38.5,31.6,09.3,0000.0,0010.01,0003.17,0002.03
2022-11-01 22:03:00,,0820.4,4.99,0.00,29.8,28.4,00.0,38.5,31.6,09.2,0000.0,0010.05,0003.17,0002.02
2022-11-01 22:04:00,,0820.3,4.99,0.00,29.8,28.5,00.0,38.6,31.7,09.2,0000.0,0011.27,0003.17,0002.01
2022-11-01 22:05:00,,0820.3,5.02,0.00,29.8,28.6,00.0,38.6,31.7,09.2,0000.0,0011.10,0003.16,0002.01
2022-11-01 22:06:00,,0820.4,4.99,0.00,29.9,28.7,00.0,38.6,31.7,09.3,0000.0,0010.50,0003.16,0002.02
2022-11-01 22:07:00,,0820.4,5.00,0.00,29.9,28.8,00.0,38.6,31.8,09.2,0000.0,0010.32,0003.18,0002.02
2022-11-01 22:08:00,,0820.4,5.01,0.00,29.9,28.8,00.0,38.6,31.8,09.2,0000.0,0010.95,0003.21,0002.01
2022-11-01 22:09:00,,0820.3,4.99,0.00,30.0,28.8,00.0,38.6,31.9,09.2,0000.0,0011.08,0003.22,0002.00
2022-11-01 22:10:00,,0820.3,5.00,0.00,30.0,27.7,00.0,38.6,31.8,09.1,0000.0,0011.51,0003.20,0002.00
2022-11-01 22:11:00,,0820.3,5.01,0.00,29.9,26.7,00.0,38.6,31.6,09.1,0000.0,0011.81,0003.15,0001.99
2022-11-01 22:12:00,,0820.3,5.01,0.00,29.9,26.8,00.0,38.5,31.5,09.1,0000.0,0011.49,0003.12,0002.00
2022-11-01 22:13:00,,0820.3,4.99,0.00,29.8,27.0,00.0,38.5,31.4,09.2,0000.0,0011.29,0003.08,0001.99
2022-11-01 22:14:00,,0820.3,5.01,0.00,29.7,27.3,00.0,38.5,31.4,09.4,0000.0,0011.27,0003.10,0001.99
2022-11-01 22:15:00,,0820.3,5.00,0.00,29.7,27.6,00.0,38.5,31.4,09.4,0000.0,0010.24,0003.07,0001.98
2022-11-01 22:16:00,,0820.3,5.00,0.00,29.7,27.9,00.0,38.5,31.5,09.3,0000.0,0010.56,0003.05,0001.96
2022-11-01 22:17:00,,0820.3,4.99,0.00,29.7,28.1,00.0,38.5,31.5,09.4,0000.0,0011.10,0002.97,0001.93
2022-11-01 22:18:00,,0820.3,5.02,0.00,29.7,28.2,00.0,38.5,31.5,09.4,0000.0,0010.92,0002.91,0001.91
2022-11-01 22:19:00,,0820.3,4.99,0.00,29.8,28.3,00.0,38.5,31.6,09.3,0000.0,0010.00,0002.82,0001.90
2022-11-01 22:20:00,,0820.3,4.99,0.00,29.8,28.5,00.0,38.5,31.6,09.2,0000.0,0009.67,0002.79,0001.87
2022-11-01 22:21:00,,0820.3,5.02,0.00,29.8,28.6,00.0,38.5,31.7,09.4,0000.0,0009.54,0002.80,0001.86
2022-11-01 22:22:00,,0820.3,5.00,0.00,29.8,28.7,00.0,38.5,31.7,09.7,0000.0,0009.66,0003.04,0001.90
2022-11-01 22:23:00,,0820.3,4.99,0.00,29.9,28.8,00.0,38.6,31.7,09.6,0000.0,0010.11,0003.19,0001.97
2022-11-01 22:24:00,,0820.3,5.01,0.00,29.9,28.8,00.0,38.6,31.8,09.7,0000.0,0010.64,0003.26,0002.03
2022-11-01 22:25:00,,0820.3,4.99,0.00,29.9,28.9,00.0,38.6,31.8,09.7,0000.0,0011.31,0003.33,0002.06
2022-11-01 22:26:00,,0820.3,5.00,0.00,30.0,28.5,00.0,38.6,31.9,09.7,0000.0,0011.68,0003.40,0002.11
2022-11-01 22:27:00,,0820.2,5.01,0.00,29.9,27.1,00.0,38.6,31.7,09.7,0000.0,0011.42,0003.48,0002.17
2022-11-01 22:28:00,,0820.3,4.99,0.00,29.9,26.7,00.0,38.5,31.6,09.6,0000.0,0011.10,0003.57,0002.25
2022-11-01 22:29:00,,0820.3,5.01,0.00,29.8,26.9,00.0,38.5,31.5,09.7,0000.0,0011.87,0003.62,0002.30
2022-11-01 22:30:00,,0820.3,4.98,0.00,29.7,27.2,00.0,38.5,31.4,09.7,0000.0,0012.13,0003.68,0002.36
2022-11-01 22:31:00,,0820.3,5.01,0.00,29.7,27.5,00.0,38.5,31.4,09.8,0000.0,0012.32,0003.73,0002.44
2022-11-01 22:32:00,,0820.3,4.98,0.00,29.7,27.8,00.0,38.5,31.4,09.9,0000.0,0012.91,0003.83,0002.50
2022-11-01 22:33:00,,0820.3,5.00,0.00,29.7,28.0,00.0,38.5,31.5,09.8,0000.0,0013.28,0003.83,0002.51
2022-11-01 22:34:00,,0820.3,5.02,0.00,29.7,28.1,00.0,38.5,31.5,09.7,0000.0,0013.88,0003.76,0002.50
2022-11-01 22:35:00,,0820.3,4.99,0.00,29.7,28.3,00.0,38.5,31.6,09.6,0000.0,0014.20,0003.72,0002.48
2022-11-01 22:36:00,,0820.3,5.02,0.00,29.7,28.4,00.0,38.5,31.6,09.6,0000.0,0013.57,0003.71,0002.46
2022-11-01 22:37:00,,0820.3,5.00,0.00,29.8,28.5,00.0,38.5,31.7,09.5,0000.0,0013.98,0003.71,0002.44
2022-11-01 22:38:00,,0820.3,5.00,0.00,29.8,28.6,00.0,38.5,31.7,09.6,0000.0,0014.48,0003.66,0002.42
2022-11-01 22:39:00,,0820.3,5.00,0.00,29.8,28.7,00.0,38.5,31.7,09.5,0000.0,0014.55,0003.61,0002.37
2022-11-01 22:40:00,,0820.3,5.00,0.00,29.9,28.8,00.0,38.6,31.7,09.5,0000.0,0013.92,0003.64,0002.37
2022-11-01 22:41:00,,0820.4,5.00,0.00,29.9,28.8,00.0,38.6,31.7,09.4,0000.0,0014.81,0003.63,0002.36
2022-11-01 22:42:00,,0820.3,5.00,0.00,29.9,28.9,00.0,38.6,31.8,09.4,0000.0,0016.31,0003.62,0002.34
2022-11-01 22:43:00,,0820.3,5.00,0.00,30.0,28.6,00.0,38.6,31.8,09.4,0000.0,0015.99,0003.56,0002.33
2022-11-01 22:44:00,,0820.2,5.01,0.00,29.9,27.2,00.0,38.6,31.7,09.4,0000.0,0015.14,0003.47,0002.31
2022-11-01 22:45:00,,0820.3,5.01,0.00,29.9,26.6,00.0,38.5,31.6,09.4,0000.0,0014.66,0003.48,0002.28
2022-11-01 22:46:00,,0820.2,4.99,0.00,29.8,26.8,00.0,38.5,31.4,09.4,0000.0,0014.30,0003.51,0002.25
2022-11-01 22:47:00,,0820.2,5.02,0.00,29.7,27.1,00.0,38.5,31.4,09.5,0000.0,0014.64,0003.52,0002.24
2022-11-01 22:48:00,,0820.2,5.00,0.00,29.7,27.4,00.0,38.5,31.4,09.6,0000.0,0014.43,0003.48,0002.24
2022-11-01 22:49:00,,0820.2,4.99,0.00,29.7,27.7,00.0,38.5,31.4,09.7,0000.0,0014.20,0003.47,0002.25
2022-11-01 22:50:00,,0820.2,5.02,0.00,29.7,27.9,00.0,38.5,31.4,09.7,0000.0,0014.57,0003.51,0002.27
2022-11-01 22:51:00,,0820.2,4.99,0.00,29.7,28.1,00.0,38.5,31.5,09.6,0000.0,0014.85,0003.48,0002.26
2022-11-01 22:52:00,,0820.2,5.01,0.00,29.7,28.2,00.0,38.5,31.5,09.6,0000.0,0014.29,0003.47,0002.26
2022-11-01 22:53:00,,0820.2,4.99,0.00,29.7,28.4,00.0,38.5,31.6,09.6,0000.0,0012.55,0003.45,0002.27
2022-11-01 22:54:00,,0820.2,5.02,0.00,29.7,28.5,00.0,38.5,31.6,09.7,0000.0,0013.74,0003.47,0002.27
2022-11-01 22:55:00,,0820.2,5.00,0.00,29.8,28.5,00.0,38.5,31.6,09.6,0000.0,0014.14,0003.50,0002.29
2022-11-01 22:56:00,,0820.2,5.01,0.00,29.8,28.6,00.0,38.5,31.7,09.6,0000.0,0014.87,0003.54,0002.32
2022-11-01 22:57:00,,0820.2,5.00,0.00,29.8,28.7,00.0,38.5,31.7,09.6,0000.0,0015.78,0003.58,0002.36
2022-11-01 22:58:00,,0820.2,4.99,0.00,29.8,28.8,00.0,38.6,31.7,09.6,0000.0,0015.60,0003.61,0002.41
2022-11-01 22:59:00,,0820.2,5.01,0.00,29.9,28.8,00.0,38.6,31.8,09.6,0000.0,0015.46,0003.63,0002.44
